Flag for Sierra Leone Weather past 2 weeks in Kenema, Sierra Leone

Now
79 °F

Passing clouds.


Feels Like: 82 °F
Forecast: N/A
Wind: No wind

Location: Roberts Field

Current Time: Mar 5, 2015 at 9:06:56 PM

Latest Report: Mar 5, 2015 at 8:30 PM


Visibility: 6 mi

Pressure: 29.83 "Hg

Humidity: 89%

Dew point: 75 °F

Location of KenemaLocation

Historic Weather in Kenema — Graph

°F

Kenema temperature yesterday

Maximum temperature yesterday: 90 °F (at 2:30 PM)
Minimum temperature yesterday: 75 °F (at 1:00 AM)
Average temperature yesterday: 82 °F

Past Weeks' High & Low Weather Summary

 TemperatureHumidityPressure
High91 °F (Feb 19, 3:00 PM)100% (Feb 19, 4:00 AM)29.95 "Hg (Feb 19, 4:00 AM)
Low70 °F (Mar 3, 7:00 AM)55% (Feb 19, 2:30 PM)29.74 "Hg (Feb 20, 3:00 PM)
Average80 °F83%29.85 "Hg
* Reported Feb 18 8:00 PM — Mar 5 8:00 PM, Kenema, Weather by CustomWeather, © 2015

Note: Actual official high and low records may vary slightly from our data, if they occured in-between our weather recording intervals... More about our weather records

Advertising

Kenema weather history for previous 24 hours

 ConditionsComfort  
Time TempWeatherWind HumidityBarometerVisibility
8:00 PM
Thu, Mar 5
79 °FPassing clouds.No wind89%29.83 "Hg6 mi
7:30 PM81 °FPassing clouds.No wind84%29.80 "Hg6 mi
7:00 PM82 °FClear.5 mph74%29.80 "Hg6 mi
6:30 PM84 °FClear.3 mph70%29.80 "Hg6 mi
6:00 PM86 °FClear.6 mph70%29.77 "Hg6 mi
5:30 PM88 °FPassing clouds.9 mph66%29.77 "Hg6 mi
5:00 PM88 °FPassing clouds.9 mph62%29.77 "Hg6 mi
4:30 PM90 °FPassing clouds.12 mph63%29.77 "Hg6 mi
4:00 PM90 °FScattered clouds.10 mph63%29.77 "Hg6 mi
1:30 PM90 °FPartly sunny.12 mph63%29.83 "Hg5 mi
1:00 PM90 °FPartly sunny.5 mph59%29.86 "Hg5 mi
12:30 PM88 °FPartly sunny.No wind62%29.86 "Hg5 mi
12:00 PM88 °FPartly sunny.No wind66%29.89 "Hg5 mi
11:30 AM88 °FPartly sunny.6 mph66%29.89 "Hg4 mi
11:00 AM86 °FPartly sunny.No wind70%29.92 "Hg4 mi
10:30 AM84 °FScattered clouds.No wind74%29.92 "Hg4 mi
10:00 AM82 °FScattered clouds.No wind79%29.92 "Hg4 mi
9:30 AM81 °FPassing clouds.9 mph84%29.92 "Hg4 mi
8:00 AM75 °FScattered clouds.No wind94%29.89 "Hg4 mi
7:30 AM75 °FFog.No wind94%29.89 "Hg3 mi
7:00 AM73 °FFog.No wind94%29.86 "Hg3 mi
6:30 AM73 °FPassing clouds.No wind94%29.86 "Hg4 mi
6:00 AM75 °FPassing clouds.No wind94%29.86 "Hg4 mi
5:30 AM75 °FClear.No wind94%29.86 "Hg4 mi
5:00 AM75 °FClear.No wind94%29.83 "Hg4 mi
4:30 AM75 °FClear.No wind94%29.83 "Hg4 mi
3:30 AM75 °FClear.No wind94%29.83 "Hg4 mi
2:00 AM75 °FClear.No wind94%29.86 "Hg4 mi
1:30 AM75 °FClear.No wind94%29.86 "Hg4 mi
1:00 AM77 °FClear.No wind94%29.89 "Hg4 mi
12:30 AM77 °FClear.No wind94%29.89 "Hg4 mi
12:00 AM77 °FClear.No wind94%29.89 "Hg4 mi
11:30 PM
Wed, Mar 4
77 °FClear.No wind94%29.89 "Hg4 mi
11:00 PM77 °FClear.No wind94%29.89 "Hg4 mi
10:30 PM77 °FClear.No wind94%29.89 "Hg4 mi
10:00 PM77 °FClear.No wind94%29.89 "Hg4 mi
9:00 PM77 °FClear.No wind94%29.86 "Hg4 mi
Weather by CustomWeather, © 2015

See weather overviewHow to use our weather pages